Weather History for KVWU - August, 2013

Change the Weather History Date:

Thursday, August 8, 2013

  Actual Average (KBDE) Record (KBDE)
Temperature  
Mean Temperature 52 °F -  
Max Temperature 64 °F 80 °F 97 °F (1983)
Min Temperature 41 °F 55 °F 42 °F (1972)
Degree Days  
Heating Degree Days 12    
Growing Degree Days 2 (Base 50)    
Moisture  
Dew Point 50 °F    
Average Humidity 78    
Maximum Humidity 100    
Minimum Humidity 63    
Precipitation  
Precipitation 0.01 in - - ()
Sea Level Pressure  
Sea Level Pressure 30.02 in    
Wind  
Wind Speed 4 mph (West)    
Max Wind Speed 12 mph    
Max Gust Speed 18 mph    
Visibility 10 miles    
Events Rain    
Averages and records for this station are not official NWS values.
T = Trace of Precipitation, MM = Missing Value Source: NWS Daily Summary

Daily Weather History Graph

Daily Weather History Graph

Search for Another Location

Airport or City:

Trip Planner

Search our weather history database for the weather conditions in past years. The results will help you decide how hot, cold, wet, or windy it might be!

Date:

Astronomy

Aug. 08, 2013 Rise Set
Actual Time 6:03 AM CDT 8:43 PM CDT
Civil Twilight 5:27 AM CDT 9:18 PM CDT
Nautical Twilight 4:42 AM CDT 10:02 PM CDT
Astronomical Twilight 3:50 AM CDT 10:55 PM CDT
Moon 8:04 AM CDT (8/8) 9:05 PM CDT (8/8)
Length of Visible Light 15h 50m
Length of Day
14h 39m
Waxing Crescent, 3% of the Moon is Illuminated
Aug 8
Waxing Crescent
Aug 14
First Quarter
Aug 20
Full
Aug 28
Last Quarter
Sep 5
New

Hourly Weather History & Observations

Time (CDT) Temp. Dew Point Humidity Pressure Visibility Wind Dir Wind Speed Gust Speed Precip Events Conditions
12:08 AM 57.2 °F 50.0 °F 77% 30.03 in 10.0 mi WNW 4.6 mph - N/A   Mostly Cloudy
12:28 AM 57.2 °F 50.0 °F 77% 30.03 in 10.0 mi NW 5.8 mph - N/A   Mostly Cloudy
12:48 AM 57.2 °F 50.0 °F 77% 30.03 in 10.0 mi NNW 3.5 mph - N/A   Mostly Cloudy
1:08 AM 55.4 °F 50.0 °F 82% 30.03 in 10.0 mi Calm Calm - N/A   Scattered Clouds
1:28 AM 53.6 °F 48.2 °F 82% 30.04 in 10.0 mi Calm Calm - N/A   Clear
1:48 AM 53.6 °F 48.2 °F 82% 30.03 in 10.0 mi Calm Calm - N/A   Scattered Clouds
2:08 AM 53.6 °F 50.0 °F 88% 30.04 in 10.0 mi NW 3.5 mph - N/A   Overcast
2:28 AM 55.4 °F 50.0 °F 82% 30.04 in 10.0 mi NNW 3.5 mph - N/A   Overcast
2:48 AM 55.4 °F 50.0 °F 82% 30.05 in 10.0 mi NW 4.6 mph - N/A   Overcast
3:08 AM 55.4 °F 48.2 °F 77% 30.04 in 10.0 mi NNW 3.5 mph - N/A   Overcast
3:28 AM 53.6 °F 48.2 °F 82% 30.04 in 10.0 mi Calm Calm - N/A   Mostly Cloudy
3:48 AM 51.8 °F 46.4 °F 82% 30.05 in 10.0 mi Calm Calm - N/A   Clear
4:08 AM 48.2 °F 44.6 °F 87% 30.04 in 10.0 mi Calm Calm - N/A   Clear
4:28 AM 48.2 °F 46.4 °F 93% 30.04 in 10.0 mi Calm Calm - N/A   Clear
4:48 AM 44.6 °F 42.8 °F 93% 30.03 in 10.0 mi Calm Calm - N/A   Clear
5:08 AM 44.6 °F 42.8 °F 93% 30.03 in 10.0 mi Calm Calm - N/A   Clear
5:28 AM 42.8 °F 42.8 °F 100% 30.03 in 4.0 mi Calm Calm - N/A   Clear
5:48 AM 42.8 °F 41.0 °F 93% 30.03 in 1.5 mi Calm Calm - N/A   Clear
6:08 AM 41.0 °F 39.2 °F 93% 30.03 in 7.0 mi Calm Calm - N/A   Clear
6:28 AM 42.8 °F 42.8 °F 100% 30.02 in 10.0 mi Calm Calm - N/A   Clear
6:48 AM 46.4 °F 44.6 °F 93% 30.02 in 10.0 mi Calm Calm - N/A   Clear
7:08 AM 46.4 °F 46.4 °F 100% 30.03 in 10.0 mi Calm Calm - N/A   Scattered Clouds
7:28 AM 48.2 °F 48.2 °F 100% 30.02 in 10.0 mi Calm Calm - N/A   Mostly Cloudy
7:48 AM 51.8 °F 50.0 °F 94% 30.03 in 10.0 mi Calm Calm - N/A   Overcast
8:08 AM 51.8 °F 51.8 °F 100% 30.04 in 10.0 mi Calm Calm - N/A   Overcast
8:28 AM 51.8 °F 50.0 °F 94% 30.04 in 10.0 mi Calm Calm - N/A   Overcast
8:48 AM 53.6 °F 51.8 °F 94% 30.05 in 10.0 mi WNW 3.5 mph - N/A   Mostly Cloudy
9:08 AM 55.4 °F 48.2 °F 77% 30.05 in 10.0 mi Calm Calm - N/A   Overcast
9:28 AM 55.4 °F 48.2 °F 77% 30.05 in 10.0 mi NNW 4.6 mph - N/A   Overcast
9:48 AM 55.4 °F 48.2 °F 77% 30.06 in 10.0 mi Calm Calm - N/A   Overcast
10:08 AM 55.4 °F 48.2 °F 77% 30.06 in 10.0 mi North 3.5 mph - N/A   Overcast
10:28 AM 55.4 °F 48.2 °F 77% 30.07 in 10.0 mi Calm Calm - N/A   Overcast
10:48 AM 55.4 °F 48.2 °F 77% 30.07 in 10.0 mi North 4.6 mph - N/A Rain Rain
11:08 AM 55.4 °F 50.0 °F 82% - 10.0 mi Calm Calm - N/A Rain Light Rain
11:28 AM 55.4 °F 50.0 °F 82% 30.06 in 10.0 mi Calm Calm - N/A Rain Light Rain
11:48 AM 57.2 °F 50.0 °F 77% 30.06 in 10.0 mi Calm Calm - N/A   Overcast
12:08 PM 55.4 °F 50.0 °F 82% 30.06 in 7.0 mi SSW 3.5 mph - N/A Rain Light Rain
12:28 PM 55.4 °F 50.0 °F 82% 30.05 in 10.0 mi Calm Calm - 0.01 in Rain Light Rain
12:48 PM 55.4 °F 50.0 °F 82% 30.05 in 10.0 mi WNW 3.5 mph - 0.01 in   Overcast
1:08 PM 57.2 °F 51.8 °F 82% 30.05 in 10.0 mi West 4.6 mph - N/A   Overcast
1:28 PM 59.0 °F 50.0 °F 72% 30.05 in 10.0 mi West 5.8 mph - N/A   Overcast
1:48 PM 57.2 °F 50.0 °F 77% 30.05 in 10.0 mi WNW 10.4 mph - N/A   Overcast
2:08 PM 60.8 °F 50.0 °F 68% 30.04 in 10.0 mi WNW 8.1 mph - N/A   Overcast
2:28 PM 60.8 °F 51.8 °F 72% 30.04 in 10.0 mi West 8.1 mph - N/A   Overcast
2:48 PM 59.0 °F 51.8 °F 77% 30.04 in 10.0 mi West 5.8 mph - N/A   Overcast
3:07 PM 60.8 °F 51.8 °F 72% 30.03 in 10.0 mi West 6.9 mph - N/A   Overcast
3:28 PM 60.8 °F 51.8 °F 72% 30.03 in 10.0 mi WSW 6.9 mph - N/A   Overcast
3:48 PM 64.4 °F 53.6 °F 68% 30.02 in 10.0 mi WSW 5.8 mph - N/A   Mostly Cloudy
4:08 PM 64.4 °F 53.6 °F 68% 30.02 in 10.0 mi WSW 6.9 mph - N/A   Scattered Clouds
4:28 PM 64.4 °F 53.6 °F 68% 30.01 in 10.0 mi WSW 9.2 mph - N/A   Mostly Cloudy
4:48 PM 64.4 °F 55.4 °F 73% 30.00 in 10.0 mi SW 8.1 mph - N/A   Overcast
5:08 PM 64.4 °F 53.6 °F 68% 30.00 in 10.0 mi SW 8.1 mph - N/A   Scattered Clouds
5:28 PM 64.4 °F 55.4 °F 73% 30.00 in 10.0 mi SW 6.9 mph - N/A   Clear
5:48 PM 64.4 °F 55.4 °F 73% 29.99 in 10.0 mi SW 9.2 mph - N/A   Clear
6:08 PM 64.4 °F 55.4 °F 73% 29.99 in 10.0 mi SW 9.2 mph - N/A   Clear
6:28 PM 64.4 °F 55.4 °F 73% 29.99 in 10.0 mi SW 8.1 mph - N/A   Scattered Clouds
6:48 PM 64.4 °F 55.4 °F 73% 29.98 in 10.0 mi WSW 9.2 mph - N/A   Scattered Clouds
7:08 PM 64.4 °F 53.6 °F 68% 29.98 in 10.0 mi NW 6.9 mph 16.1 mph N/A   Scattered Clouds
7:28 PM 62.6 °F 53.6 °F 72% 29.98 in 10.0 mi WNW 6.9 mph - N/A   Mostly Cloudy
7:48 PM 62.6 °F 51.8 °F 68% 29.98 in 10.0 mi WNW 10.4 mph - N/A   Scattered Clouds
8:08 PM 62.6 °F 51.8 °F 68% 29.98 in 10.0 mi WNW 11.5 mph - N/A   Scattered Clouds
8:28 PM 60.8 °F 50.0 °F 68% 29.99 in 10.0 mi WNW 8.1 mph - N/A   Clear
8:48 PM 60.8 °F 50.0 °F 68% 29.99 in 10.0 mi WNW 9.2 mph - N/A   Clear
9:08 PM 60.8 °F 50.0 °F 68% 29.99 in 10.0 mi WNW 6.9 mph - N/A   Clear
9:28 PM 60.8 °F 48.2 °F 63% 29.99 in 10.0 mi West 8.1 mph - N/A   Clear
9:48 PM 60.8 °F 48.2 °F 63% 29.99 in 10.0 mi West 9.2 mph - N/A   Clear
10:08 PM 60.8 °F 48.2 °F 63% 29.99 in 10.0 mi West 8.1 mph - N/A   Clear
10:28 PM 60.8 °F 48.2 °F 63% 29.99 in 10.0 mi West 8.1 mph - N/A   Clear
10:48 PM 60.8 °F 48.2 °F 63% 30.00 in 10.0 mi West 10.4 mph - N/A   Clear
11:08 PM 59.0 °F 48.2 °F 67% 30.00 in 10.0 mi West 9.2 mph - N/A   Clear
11:28 PM 59.0 °F 48.2 °F 67% 30.00 in 10.0 mi West 9.2 mph - N/A   Clear
11:48 PM 59.0 °F 48.2 °F 67% 30.00 in 10.0 mi West 11.5 mph 18.4 mph N/A   Clear